Location: La Brionne
(46.1728°N, 1.7849°E)
Time: 06:43:57
(UTC+00:00)

Meteor 2-11 Rocket - Pass Details

Date: 16 June 2021
Orbit: 938 x 958 km, 82.5° (Epoch: 31 July)

Event Time Altitude Azimuth Distance (km) Brightness Sun altitude
Rises 21:19:57 0° 351° (N) 3,636 8.7 -12.2°
Reaches altitude 10° 21:22:28 10° 353° (N) 2,683 7.8 -12.5°
Maximum altitude 21:28:36 77° 80° (E) 975 4.4 -13.1°
Enters shadow 21:33:25 17° 165° (SSE) 2,188 5.8 -13.5°
